Location: Bagnara
(41.0500°N, 14.7833°E)
Time: 16:08:30
(UTC+00:00)

FALCON 9 DEB - Pass Details

Date: 03 November 2021
Orbit: 344 x 354 km, 53.0° (Epoch: 29 November)

Event Time Altitude Azimuth Distance (km) Brightness Sun altitude
Rises 16:30:38 0° 291° (WNW) 2,166 7.7 -7.4°
Reaches altitude 10° 16:33:59 10° 332° (NNW) 1,332 5.8 -8.0°
Maximum altitude 16:34:45 11° 347° (NNW) 1,293 5.5 -8.2°
Drops below altitude 10° 16:35:32 10° 3° (N) 1,336 5.4 -8.3°
Enters shadow 16:37:26 - 31° (NNE) 1,722 5.8 -8.7°
